Location: Neuvy Saint Sepulchre
(46.5953°N, 1.8122°E)
Time: 08:30:24
(UTC+02:00)

ISS - Pass Details

Date: 16 July 2021
Orbit: 419 x 421 km, 51.6° (Epoch: 03 August)

Event Time Altitude Azimuth Distance (km) Brightness Sun altitude
Rises 02:07:05 0° 289° (WNW) 2,372 0.3 -22.0°
Reaches altitude 10° 02:09:18 10° 299° (WNW) 1,506 -0.6 -22.0°
Maximum altitude 02:12:26 35° 7° (N) 700 -2.1 -22.0°
Drops below altitude 10° 02:15:35 10° 75° (ENE) 1,503 -0.7 -21.9°
Sets 02:17:48 0° 85° (E) 2,366 0.2 -21.9°
